This is the latest recevied weather packets stored in our database for station/object OE-11073. If no packets are shown the sender has not sent any weather packets the latest 10 day(s).
| Time | Temp. | Humidity | Pressure | Rain* | Wind** | Luminosity | Snow |
|---|---|---|---|---|---|---|---|
| 1788342084 | 20.56° C | 61% | - | 0 mm | - | 704 W/m² | - |
| 1788341711 | 19.44° C | 64% | - | 0 mm | - | 681 W/m² | - |
| 1788341111 | 18.89° C | 64% | - | 0 mm | - | 627 W/m² | - |
| 1788340284 | 18.89° C | 63% | - | 0 mm | - | 612 W/m² | - |
| 1788339911 | 18.89° C | 69% | - | 0 mm | - | 589 W/m² | - |
| 1788338484 | 18.33° C | 68% | - | 0 mm | - | 581 W/m² | - |
| 1788338111 | 17.78° C | 68% | - | 0 mm | - | 551 W/m² | - |
| 1788337511 | 17.78° C | 71% | - | 0 mm | - | 520 W/m² | - |
| 1788336684 | 17.78° C | 70% | - | 0 mm | - | 467 W/m² | - |
| 1788336311 | 17.22° C | 72% | - | 0 mm | - | 482 W/m² | - |
| 1788335711 | 16.67° C | 75% | - | 0 mm | - | 444 W/m² | - |
| 1788334884 | 16.11° C | 73% | - | 0 mm | - | 421 W/m² | - |
| 1788334511 | 16.11° C | 74% | - | 0 mm | - | 390 W/m² | - |
| 1788333911 | 16.11° C | 74% | - | 0 mm | - | 360 W/m² | - |
| 1788333204 | 15.56° C | 79% | - | 0 mm | - | 337 W/m² | - |
| 1788332710 | 14.44° C | 80% | - | 0 mm | - | 306 W/m² | - |
| 1788332111 | 14.44° C | 81% | - | 0 mm | - | 275 W/m² | - |
| 1788331284 | 13.33° C | 83% | - | 0 mm | - | 252 W/m² | - |
| 1788330311 | 12.78° C | 89% | - | 0 mm | - | 199 W/m² | - |
| 1788329484 | 12.22° C | 90% | - | 0 mm | - | 176 W/m² | - |
| 1788329111 | 12.22° C | 92% | - | 0 mm | - | 153 W/m² | - |
| 1788328511 | 11.67° C | 93% | - | 0 mm | - | 122 W/m² | - |
| 1788327684 | 11.67° C | 93% | - | 0 mm | - | 99 W/m² | - |
| 1788327311 | 10.56° C | 95% | - | 0 mm | - | 77 W/m² | - |
| 1788326710 | 10° C | 95% | - | 0 mm | - | 46 W/m² | - |
* Rain latest hour (hover to see other rain measurements)
** Current wind speed in m/s (hover to see current wind gust speed)